Ontario, CA

5:38 AM PDT on September 25, 2016 (GMT -0700)
Ontario International

Weather History for KONT - April, 2013

Change the Weather History Date:

Thursday, April 11, 2013

  Actual Average Record
Temperature  
Mean Temperature 67 °F 61 °F  
Max Temperature 81 °F 73 °F 90 °F (2008)
Min Temperature 52 °F 50 °F 42 °F (1999)
Degree Days  
Heating Degree Days 0 5  
Month to date heating degree days 15 56  
Since 1 July heating degree days 1223 1425  
Cooling Degree Days 2 1  
Month to date cooling degree days 10 10  
Year to date cooling degree days 48 28  
Growing Degree Days 17 (Base 50)    
Moisture  
Dew Point 37 °F    
Average Humidity 29    
Maximum Humidity 43    
Minimum Humidity 15    
Precipitation  
Precipitation 0.00 in 0.03 in 0.34 in (2012)
Month to date precipitation T 0.33  
Year to date precipitation 2.42 9.35  
Since 1 July precipitation 5.19  
Snow  
Snow 0.00 in - - ()
Month to date snowfall 0.0  
Year to date snowfall 0.0  
Snow Depth 0.00 in    
Sea Level Pressure  
Sea Level Pressure 29.86 in    
Wind  
Wind Speed 5 mph (WSW)    
Max Wind Speed 18 mph    
Max Gust Speed 23 mph    
Visibility 10 miles    
Events      
T = Trace of Precipitation, MM = Missing Value Source: NWS Daily Summary

Daily Weather History Graph

Daily Weather History Graph

Search for Another Location

Airport or City:

Trip Planner

Search our weather history database for the weather conditions in past years. The results will help you decide how hot, cold, wet, or windy it might be!

Date:

Astronomy

Apr. 11, 2013 Rise Set
Actual Time 6:24 AM PDT 7:19 PM PDT
Civil Twilight 5:58 AM PDT 7:44 PM PDT
Nautical Twilight 5:28 AM PDT 8:15 PM PDT
Astronomical Twilight 4:57 AM PDT 8:46 PM PDT
Moon 7:02 AM PDT (4/11) 8:52 PM PDT (4/11)
Length of Visible Light 13h 46m
Length of Day
12h 54m
New Moon, 2% of the Moon is Illuminated
Apr 11
New Moon
Apr 18
First Quarter
Apr 25
Full
May 2
Last Quarter
May 9
New

Hourly Weather History & Observations

Time (PDT) Temp. Dew Point Humidity Pressure Visibility Wind Dir Wind Speed Gust Speed Precip Events Conditions
12:53 AM 60.1 °F 30.9 °F 33% 29.97 in 10.0 mi NE 3.5 mph - N/A   Clear
1:53 AM 59.0 °F 30.9 °F 35% 29.96 in 10.0 mi Calm Calm - N/A   Clear
2:53 AM 57.0 °F 32.0 °F 39% 29.95 in 10.0 mi NNE 3.5 mph - N/A   Clear
3:53 AM 55.9 °F 30.9 °F 39% 29.93 in 10.0 mi Calm Calm - N/A   Clear
4:53 AM 54.0 °F 30.9 °F 41% 29.93 in 10.0 mi Calm Calm - N/A   Clear
5:53 AM 54.0 °F 30.9 °F 41% 29.92 in 10.0 mi Variable 4.6 mph - N/A   Partly Cloudy
6:53 AM 55.0 °F 34.0 °F 45% 29.93 in 10.0 mi Calm Calm - N/A   Scattered Clouds
7:53 AM 57.9 °F 32.0 °F 37% 29.93 in 10.0 mi Variable 3.5 mph - N/A   Mostly Cloudy
8:53 AM 60.1 °F 30.9 °F 33% 29.94 in 10.0 mi Calm Calm - N/A   Scattered Clouds
9:53 AM 66.2 °F 28.4 °F 24% 29.95 in 10.0 mi SW 3.5 mph - N/A   Scattered Clouds
10:53 AM 70.0 °F 26.1 °F 19% 29.91 in 10.0 mi Variable 3.5 mph - N/A   Partly Cloudy
11:53 AM 75.0 °F 24.1 °F 15% 29.87 in 10.0 mi SW 4.6 mph - N/A   Partly Cloudy
12:53 PM 75.9 °F 27.0 °F 16% 29.83 in 10.0 mi SW 8.1 mph - N/A   Partly Cloudy
1:53 PM 80.1 °F 28.9 °F 15% 29.80 in 10.0 mi WSW 6.9 mph - N/A   Partly Cloudy
2:53 PM 77.0 °F 41.0 °F 28% 29.78 in 10.0 mi SW 11.5 mph - N/A   Scattered Clouds
3:53 PM 77.0 °F 44.1 °F 31% 29.76 in 10.0 mi West 17.3 mph 21.9 mph N/A   Scattered Clouds
4:53 PM 75.0 °F 44.1 °F 33% 29.75 in 10.0 mi West 15.0 mph 23.0 mph N/A   Mostly Cloudy
5:53 PM 70.0 °F 46.9 °F 44% 29.75 in 10.0 mi WSW 17.3 mph - N/A   Mostly Cloudy
6:53 PM 64.9 °F 48.9 °F 56% 29.76 in 10.0 mi WSW 11.5 mph - N/A   Scattered Clouds
7:53 PM 61.0 °F 50.0 °F 67% 29.78 in 10.0 mi West 9.2 mph - N/A   Scattered Clouds
8:53 PM 59.0 °F 50.0 °F 72% 29.80 in 10.0 mi West 6.9 mph - N/A   Scattered Clouds
9:53 PM 57.0 °F 50.0 °F 77% 29.81 in 10.0 mi WSW 6.9 mph - N/A   Mostly Cloudy
10:53 PM 57.0 °F 50.0 °F 77% 29.80 in 10.0 mi WSW 4.6 mph - N/A   Mostly Cloudy
11:53 PM 55.0 °F 50.0 °F 83% 29.80 in 10.0 mi West 4.6 mph - N/A   Mostly Cloudy